sat.trackr.live / text

‹ back to catalog

STARLINK-30600

NORAD 58100 · 2023-161D

PAYLOAD ACTIVE UNKNOWN

§ Identity

Operator
Country
US
Launch date
2023-10-21
Launch site
AFWTR
Launch vehicle
Mass (kg)
RCS (m²)

Purposes: comms

External: N2YO · Heavens-Above · Gunter

§ Orbital elements

Epoch: 2026-09-20T11:52:39.455904Z

Period
93.85 min
Inclination
53.1615°
Eccentricity
0.0001663
Mean motion
15.34386203 rev/d
Perigee alt
461.6 km
Apogee alt
463.9 km
Semi-major
6,840.9 km
B*
-1.1107e-5
RAAN
337.3795°
Arg perigee
109.1015°
Mean anomaly
251.0168°
Rev number
16,429

§ Raw data

STARLINK-306001 58100U 23161D   26263.49490111 -.00000752  00000+0 -11107-4 0  99942 58100  53.1615 337.3795 0001663 109.1015 251.0168 15.34386203164297

JSON: /api/v1/satellites/58100 · /tle

For live sub-satellite position, see the globe view (requires WebGL).

§ Visibility from observer

Set your observer location to see the next 7 days of passes ≥ 10°. The values pass through the URL so the page stays shareable.

No JS? Fill the form by hand. The geolocation button needs JavaScript.